Вернуться в каталог

ONEWEB-0203

АктивенСвязьPO
NORAD 48235·PAYLOAD·🇬🇧 United Kingdom

Запущен Apr 25, 2021 с Vostochny Cosmodrome

Loading…

Ближайшие Пролёты (ближайшие 24 часа)

TLE

СвежийSource: CelesTrak SupGP

Эпоха: Sep 14, 2026, 22:12 UTC

1 48235C 21031AB  26257.92517778  .00001924  00000+0  51973-2 0  2576
2 48235  87.8899 271.8071 0002051  85.1188 312.0331 13.14499660    15

Отслеживайте ONEWEB-0203 в реальном времени с AllMySat

Download on the App Store